London-Corbin, KY

4:46 PM EDT on July 15, 2019 (GMT -0400)
London-Corbin / McKee

Weather History for KLOZ - May, 2019

Change the Weather History Date:

Friday, May 17, 2019

  Actual Average Record
Temperature  
Mean Temperature 74 °F 65 °F  
Max Temperature 86 °F 77 °F 89 °F (1962)
Min Temperature 61 °F 54 °F 36 °F (1983)
Degree Days  
Heating Degree Days 0 3  
Month to date heating degree days 44 67  
Since 1 July heating degree days 4024 4168  
Cooling Degree Days 9 3  
Month to date cooling degree days 42 33  
Year to date cooling degree days 54 59  
Growing Degree Days 22 (Base 50)    
Moisture  
Dew Point 63 °F    
Average Humidity 74    
Maximum Humidity 100    
Minimum Humidity 48    
Precipitation  
Precipitation T in 0.17 in 1.89 in (1963)
Sea Level Pressure  
Sea Level Pressure 29.93 in    
Wind  
Wind Speed 6 mph (SW)    
Max Wind Speed 20 mph    
Max Gust Speed 28 mph    
Visibility 9 miles    
Events Rain , Thunderstorm    
T = Trace of Precipitation, MM = Missing Value Source: NWS Daily Summary

Daily Weather History Graph

Daily Weather History Graph

Search for Another Location

Airport or City:

Astronomy

May. 17, 2019 Rise Set
Actual Time 6:26 AM EDT 8:39 PM EDT
Civil Twilight 5:57 AM EDT 9:08 PM EDT
Nautical Twilight 5:21 AM EDT 9:44 PM EDT
Astronomical Twilight 4:42 AM EDT 10:23 PM EDT
Moon 7:29 PM EDT (5/17) 5:53 AM EDT (5/17)
Length of Visible Light 15h 11m
Length of Day
14h 12m
Waxing Gibbous, 98% of the Moon is Illuminated
May 17
Waxing Gibbous
May 18
Full
May 26
Last Quarter
Jun 3
New
Jun 10
First Quarter

Hourly Weather History & Observations

Time (EDT) Temp. Heat Index Dew Point Humidity Pressure Visibility Wind Dir Wind Speed Gust Speed Precip Events Conditions
12:03 AM 64.0 °F - 61.0 °F 90% 29.98 in 2.5 mi West 4.6 mph - 0.05 in Rain , Thunderstorm Rain
12:13 AM 64.0 °F - 62.1 °F 93% 29.97 in 5.0 mi SW 6.9 mph - 0.07 in Rain , Thunderstorm Light Rain
12:23 AM 63.0 °F - 62.1 °F 97% 29.97 in 4.0 mi SSW 6.9 mph - 0.10 in Rain Rain
12:53 AM 63.0 °F - 62.1 °F 97% 29.92 in 10.0 mi Calm Calm - 0.14 in Rain Light Rain
1:53 AM 63.0 °F - 62.1 °F 97% 29.89 in 10.0 mi SSW 3.5 mph - 0.00 in   Clear
2:53 AM 62.1 °F - 61.0 °F 96% 29.89 in 10.0 mi SW 3.5 mph - N/A   Partly Cloudy
3:53 AM 62.1 °F - 61.0 °F 96% 29.89 in 10.0 mi South 3.5 mph - N/A   Scattered Clouds
4:53 AM 62.1 °F - 61.0 °F 96% 29.92 in 10.0 mi South 3.5 mph - 0.00 in   Overcast
5:53 AM 62.1 °F - 61.0 °F 96% 29.90 in 10.0 mi SW 4.6 mph - N/A   Partly Cloudy
6:53 AM 61.0 °F - 61.0 °F 100% 29.93 in 10.0 mi Calm Calm - N/A   Partly Cloudy
7:53 AM 63.0 °F - 62.1 °F 97% 29.94 in 10.0 mi South 3.5 mph - N/A   Clear
8:53 AM 68.0 °F - 64.0 °F 87% 29.94 in 10.0 mi SW 4.6 mph - N/A   Partly Cloudy
9:53 AM 72.0 °F - 64.9 °F 78% 29.94 in 10.0 mi SW 11.5 mph - N/A   Clear
10:53 AM 75.0 °F - 66.0 °F 73% 29.94 in 10.0 mi WSW 8.1 mph - N/A   Clear
11:53 AM 75.9 °F - 66.0 °F 71% 29.94 in 10.0 mi SW 6.9 mph - N/A   Clear
12:53 PM 75.9 °F - 66.9 °F 74% 29.95 in 10.0 mi SW 8.1 mph - N/A   Clear
1:53 PM 80.1 °F 82.7 °F 68.0 °F 67% 29.94 in 10.0 mi WSW 10.4 mph - N/A   Clear
2:53 PM 82.0 °F 84.9 °F 68.0 °F 62% 29.93 in 10.0 mi SW 9.2 mph - N/A   Partly Cloudy
3:53 PM 84.9 °F 85.9 °F 63.0 °F 48% 29.92 in 10.0 mi West 13.8 mph 27.6 mph N/A   Clear
4:53 PM 84.9 °F 85.4 °F 62.1 °F 46% 29.90 in 10.0 mi West 12.7 mph 24.2 mph N/A   Clear
5:53 PM 84.9 °F 85.4 °F 62.1 °F 46% 29.91 in 10.0 mi WSW 12.7 mph - N/A   Clear
6:53 PM 84.0 °F 84.9 °F 63.0 °F 49% 29.91 in 10.0 mi West 10.4 mph - N/A   Clear
7:53 PM 82.0 °F 83.1 °F 63.0 °F 52% 29.91 in 10.0 mi WSW 6.9 mph - N/A   Clear
8:53 PM 79.0 °F - 63.0 °F 58% 29.93 in 10.0 mi SW 3.5 mph - N/A   Clear
9:53 PM 71.1 °F - 64.9 °F 81% 29.94 in 10.0 mi Calm Calm - N/A   Clear
10:53 PM 68.0 °F - 64.0 °F 87% 29.96 in 10.0 mi Calm Calm - N/A   Clear
11:53 PM 66.0 °F - 64.0 °F 93% 29.97 in 10.0 mi Calm Calm - N/A   Clear